Tracking 19854 objects as of 24-Sep-2019
HD Live streaming from Space Station
objects crossing your sky now

DELTA 1 DEB

Track DELTA 1 DEB now!
10-day predictions


NORAD ID: 5971
Int'l Code: 1967-006E
Perigee: 1,287.9 km
Apogee: 1,462.7 km
Inclination: 102.0 °
Period: 113.1 minutes
Semi major axis: 7746 km
RCS: 0.0243 m2 (small)
Launch date: January 26, 1967
Source: United States (US)
Launch site: AIR FORCE WESTERN TEST RANGE (AFWTR)

Note: This is SATELLITE DEBRIS
aabbcc
Your satellite tracking list
Your tracking list is empty




NASA's NSSDC Master Catalog

Two Line Element Set (TLE):
1  5971U 67006E   19266.67956348 -.00000025  00000-0  11156-3 0  9998
2  5971 102.0173  56.2906 0112864 158.5453 272.3239 12.73386925448335
Source of the keplerian elements: AFSPC